TimeEDT,TemperatureF,Dew PointF,Humidity,Sea Level PressureIn,VisibilityMPH,Wind Direction,Wind SpeedMPH,Gust SpeedMPH,PrecipitationIn,Events,Conditions,WindDirDegrees,DateUTC
12:54 AM,70.0,61.0,73,29.94,10.0,ESE,5.8,-,N/A,,Overcast,110,2012-10-02 04:54:00
1:54 AM,70.0,61.0,73,29.94,10.0,ESE,5.8,-,N/A,,Overcast,110,2012-10-02 05:54:00
2:10 AM,69.1,61.0,75,29.94,10.0,ESE,4.6,-,N/A,,Scattered Clouds,110,2012-10-02 06:10:00
2:29 AM,69.1,61.0,75,29.94,10.0,East,4.6,-,N/A,,Mostly Cloudy,90,2012-10-02 06:29:00
2:54 AM,69.8,62.6,78,29.94,10.0,East,5.8,-,N/A,,Overcast,100,2012-10-02 06:54:00
3:54 AM,71.6,62.6,73,29.94,10.0,East,4.6,-,N/A,,Overcast,80,2012-10-02 07:54:00
4:54 AM,71.1,63.0,75,29.92,10.0,ESE,5.8,-,N/A,,Overcast,120,2012-10-02 08:54:00
5:54 AM,71.1,64.0,78,29.92,10.0,SE,8.1,-,N/A,,Overcast,130,2012-10-02 09:54:00
6:54 AM,72.0,64.9,78,29.93,10.0,SE,9.2,-,N/A,,Overcast,130,2012-10-02 10:54:00
7:02 AM,72.0,64.9,78,29.94,10.0,SE,9.2,-,N/A,,Overcast,140,2012-10-02 11:02:00
7:30 AM,72.0,66.0,81,29.94,10.0,SE,11.5,-,N/A,,Mostly Cloudy,140,2012-10-02 11:30:00
7:54 AM,73.0,66.0,79,29.93,10.0,SE,9.2,-,N/A,,Mostly Cloudy,140,2012-10-02 11:54:00
8:23 AM,75.0,66.9,76,29.93,10.0,SE,10.4,-,N/A,,Mostly Cloudy,140,2012-10-02 12:23:00
8:54 AM,73.9,66.9,79,29.93,10.0,SSE,12.7,-,N/A,,Mostly Cloudy,150,2012-10-02 12:54:00
9:31 AM,73.9,66.9,79,29.94,10.0,SSE,12.7,-,0.00,,Mostly Cloudy,150,2012-10-02 13:31:00
9:45 AM,73.0,66.9,81,29.95,1.5,South,9.2,-,0.00,Rain,Heavy Rain,180,2012-10-02 13:45:00
9:52 AM,73.4,66.2,78,29.95,1.0,SSE,8.1,-,0.15,Rain,Light Rain,160,2012-10-02 13:52:00
9:54 AM,73.0,68.0,84,29.94,1.5,South,10.4,-,0.15,Rain,Light Rain,170,2012-10-02 13:54:00
9:56 AM,73.0,68.0,84,29.95,2.5,SSE,8.1,-,0.00,Rain,Light Rain,160,2012-10-02 13:56:00
10:03 AM,73.0,68.0,84,29.95,6.0,South,9.2,-,0.00,,Haze,170,2012-10-02 14:03:00
10:14 AM,73.9,69.1,85,29.95,7.0,South,9.2,-,0.00,,Overcast,170,2012-10-02 14:14:00
10:32 AM,75.2,69.8,83,29.95,8.0,South,6.9,-,N/A,Rain,Light Rain,190,2012-10-02 14:32:00
10:54 AM,75.9,70.0,82,29.94,9.0,SSW,10.4,-,0.00,,Overcast,200,2012-10-02 14:54:00
11:25 AM,75.2,69.8,83,29.94,4.0,South,9.2,-,N/A,Rain,Light Rain,180,2012-10-02 15:25:00
11:54 AM,75.0,70.0,84,29.93,4.0,SSW,10.4,-,0.03,Rain,Light Rain,210,2012-10-02 15:54:00
12:04 PM,75.0,70.0,84,29.94,10.0,SSW,13.8,-,0.01,,Overcast,200,2012-10-02 16:04:00
12:54 PM,77.0,70.0,79,29.92,10.0,SSW,9.2,-,0.01,,Overcast,200,2012-10-02 16:54:00
1:50 PM,78.8,71.6,78,29.92,10.0,SSW,12.7,-,N/A,,Overcast,210,2012-10-02 17:50:00
1:54 PM,78.1,71.1,79,29.91,10.0,SSW,13.8,-,N/A,,Overcast,210,2012-10-02 17:54:00
2:32 PM,80.1,71.1,74,29.92,10.0,SSW,15.0,-,N/A,,Mostly Cloudy,210,2012-10-02 18:32:00
2:54 PM,79.0,70.0,74,29.91,10.0,SSW,13.8,23.0,N/A,,Scattered Clouds,210,2012-10-02 18:54:00
3:20 PM,79.0,70.0,74,29.92,10.0,SSW,15.0,-,N/A,,Mostly Cloudy,200,2012-10-02 19:20:00
3:44 PM,78.1,69.1,74,29.91,10.0,SSW,19.6,23.0,N/A,,Mostly Cloudy,200,2012-10-02 19:44:00
3:54 PM,78.1,69.1,74,29.90,10.0,SSW,15.0,-,N/A,,Mostly Cloudy,210,2012-10-02 19:54:00
4:03 PM,77.0,69.1,76,29.91,10.0,SW,15.0,-,N/A,,Mostly Cloudy,220,2012-10-02 20:03:00
4:12 PM,77.0,69.1,76,29.91,10.0,SW,13.8,-,N/A,,Mostly Cloudy,220,2012-10-02 20:12:00
4:54 PM,77.0,70.0,79,29.90,10.0,SSW,9.2,-,N/A,,Overcast,210,2012-10-02 20:54:00
5:13 PM,77.0,70.0,79,29.91,10.0,SSW,11.5,-,N/A,,Overcast,200,2012-10-02 21:13:00
5:35 PM,77.0,70.0,79,29.91,10.0,SSW,10.4,-,N/A,,Overcast,200,2012-10-02 21:35:00
5:54 PM,75.9,70.0,82,29.91,10.0,South,10.4,-,N/A,,Overcast,190,2012-10-02 21:54:00
6:37 PM,75.9,70.0,82,29.92,8.0,SSW,9.2,-,N/A,,Overcast,210,2012-10-02 22:37:00
6:54 PM,75.0,69.1,82,29.92,7.0,SSW,10.4,-,N/A,,Overcast,200,2012-10-02 22:54:00
7:11 PM,75.0,70.0,84,29.92,2.0,SSW,11.5,-,N/A,,Haze,200,2012-10-02 23:11:00
7:17 PM,75.0,70.0,84,29.93,1.0,SSW,11.5,-,N/A,,Haze,210,2012-10-02 23:17:00
7:34 PM,75.0,70.0,84,29.93,2.0,SSW,11.5,-,N/A,,Haze,200,2012-10-02 23:34:00
7:36 PM,75.0,70.0,84,29.93,3.0,SSW,9.2,-,N/A,,Haze,200,2012-10-02 23:36:00
7:54 PM,73.4,69.8,88,29.93,7.0,SSW,9.2,-,N/A,,Overcast,210,2012-10-02 23:54:00
8:40 PM,73.9,69.1,85,29.95,8.0,SSW,10.4,-,N/A,,Overcast,200,2012-10-03 00:40:00
8:54 PM,73.9,69.1,85,29.95,8.0,SSW,10.4,-,N/A,,Overcast,210,2012-10-03 00:54:00
9:09 PM,73.9,69.1,85,29.95,8.0,SSW,10.4,-,N/A,,Overcast,210,2012-10-03 01:09:00
9:54 PM,75.0,69.1,82,29.96,8.0,SSW,11.5,-,N/A,,Overcast,210,2012-10-03 01:54:00
10:54 PM,73.9,69.1,85,29.96,7.0,SSW,10.4,-,N/A,,Overcast,210,2012-10-03 02:54:00
11:45 PM,73.9,69.1,85,29.97,6.0,SW,5.8,-,N/A,,Haze,220,2012-10-03 03:45:00
11:54 PM,73.0,69.1,87,29.96,6.0,SW,5.8,-,N/A,,Scattered Clouds,220,2012-10-03 03:54:00